Showing default

AETHER-6, 67377

Orbit data source: Space-Track

AETHER-6, 67377 is a payload satellite owned by Kepler Comms (CA) in SSO that was launched on Sun, 11 Jan 2026 UTC via an FALCON 9 launch vehicle from the Air Force Western Test Range (AFWTR). Payload-class satellites include a variety of spacecraft equipped with specific instruments for various scientific and technological missions. These include communications satellites like Starlink; space stations such as the ISS; scientific satellites like the Hubble; Earth observation satellites from companies like Planet Labs, Umbra, and HawkEye 360; GPS; miniature CubeSats for education and research; and military/defense satellites.

Loading next visibility...
Identifier
67377, 2026-004Q
Orbit
SSO
Country
Flag of CACA
Related business
Manufacturer
Kepler Comms
Mission
Operational Commercial Communications
Bus & Motor
KEPLER GEN2B, Unknown motor
Mass
300 kg wet, 300 kg dry
Launch date (UTC)
2026-01-11 (8 months ago)
Launch vehicle
FALCON 9
Launch site
Air Force Western Test Range (AFWTR)
Object type
Payload
Rocket body
Debris
Shape & HBR
Box + 2 Pan, 7.6 m
Radar Cross Section
4.448 m², Large (>1 m²)

Expand to show TLE details & history
Last TLE update: 12 hours ago

TLE from 12 hours ago
0 AETHER-6
1 67377U 26004Q   26264.27014079  .00000365  00000-0  48037-4 0  9992
2 67377  97.8111 261.1302 0000712 162.0796 198.0445 14.85860028 37558
Epoch: 2026-09-21T06:29Z
TLE epoch observation values (Epoch: 2026-09-21T06:29:00.164Z)
Latitude
0.00003°
Longitude
163.72713°
Altitude
614.393 km
Speed
7.552 km/s
True Right ascension
17h 24m 31s
True Declination
0° 00' 00"
Sunlit
Object was in daylight at epoch
Visualization orbit readout
Latitude
Unknown
Longitude
Unknown
Altitude
Unknown
Speed
Unknown
Apparent Right ascension
Unknown
Apparent Declination
Unknown
Sunlit
N/A
Visualization observer readout
Local Sidereal Time
11:32:52
Azimuth
Unknown
Elevation
Unknown
Doppler factor
Unknown
Orbital elements
Apogee altitude
608.414 km
Perigee altitude
607.419 km
Semi-major axis
6,986.054 km
Eccentricity
0.00007
Inclination
97.8111°
RAAN
261.1302°
Arg. of periapsis
162.0796°
True anomaly
198.04197°
Mean anomaly
198.0445°
Eccentric anomaly
198.04324°
Mean motion
3.71702 °/min
Orbital period
96.85 mins
BSTAR
0.000048037
Loading maneuver chart data...
Computing Atmospheric mass density...
Loading historical data...
Loading historical data...
Loading historical data...
Loading historical data...
Loading historical data...
Loading historical data...
Loading historical data...

Documentation

Showing up to 5 results
|